www.pogodaiklimat.ru

Погода и климат >> Архив погоды >> Россия >> Владимирская область >> Владимир


АРХИВ ПОГОДЫ в Владимире

Время (UTC), дата Ветер
(напр.,м/с)
 
Видим.   Явления Облачность Т
(С)
Тd
(С)
f
(%)
Тe
(С)
Тes
(С)
Комфортность P
(гПа)
Po
(гПа)
Тmin
(С)
Tmax
(С)
R
(мм)
R24
(мм)
S
(см)
00 12.11 Ю 1 10 км ясно -8.7 -13.9 66 -11 -11 прохладно 1049.8 1026.8
03 12.11 Ю 3 10 км ясно -9.9 -13.8 73 -16 -16 очень
холодно
1049.8 1026.8 -9.9
06 12.11 Ю 2 10 км ясно -10.0 -13.3 77 -14 -14 холодно 1050.3 1027.2 -10.6
09 12.11 Ю 3 10 км ясно -5.2 -12.1 58 -10 -9 прохладно 1049.5 1026.9
12 12.11 Ю 3 10 км ясно -3.5 -12.7 49 -8 -8 прохладно 1048.2 1025.7
15 12.11 Ю 2 10 км ясно -6.2 -13.2 58 -10 -10 прохладно 1047.9 1025.2 -3.1
18 12.11 Ю 2 10 км ясно -7.2 -13.5 61 -11 -11 прохладно 1047.6 1024.8
21 12.11 Ю 4 10 км ясно -7.7 -13.4 64 -14 -14 холодно 1047.1 1024.3
00 13.11 Ю 5 10 км ясно -8.5 -13.3 68 -16 -16 очень
холодно
1046.2 1023.3
03 13.11 Ю 3 10 км ясно -9.5 -13.3 74 -15 -15 холодно 1045.5 1022.6 -9.5
06 13.11 Ю 4 10 км 4/0
[Ci fib]
-9.6 -13.6 73 -16 -16 очень
холодно
1044.9 1022.0 -9.9
09 13.11 Ю 4 10 км 3/0
[Ci fib]
-5.1 -15.1 45 -11 -10 прохладно 1043.1 1020.5
12 13.11 Ю 4
{10}
10 км 4/0
[Ci fib]
-2.8 -18.1 30 -8 -8 прохладно 1040.4 1018.2
15 13.11 Ю 4 10 км 6/0
[Ac trans]
-5.1 -16.2 41 -11 -11 прохладно 1039.6 1017.1 -2.6
18 13.11 Ю 5-10
{10}
10 км 6/0
[Ac trans]
-5.7 -14.8 49 -12 -12 холодно 1037.6 1015.2
21 13.11 Ю 5-10
{11}
10 км 6/0
[Ac trans]
-6.0 -14.4 51 -13 -13 холодно 1035.6 1013.2
00 14.11 Ю 6-10
{11}
10 км 6/0
[Ac trans]
-6.0 -13.7 54 -13 -13 холодно 1033.8 1011.4
03 14.11 Ю 5
{10}
10 км 6/0
[Ac trans Ci fib]
-5.9 -13.3 56 -13 -13 холодно 1032.2 1009.9 -6.1
06 14.11 Ю 4
{10}
10 км 9/0
[Ac trans Ci fib]
-6.2 -12.7 60 -12 -12 прохладно 1031.1 1008.8 -6.3
09 14.11 Ю 4 10 км 9/6 600 м
[Sc Ac trans]
-3.3 -9.5 62 -9 -9 по сезону 1030.5 1008.4
12 14.11 Ю 3
{10}
10 км 10/6 630 м
[Sc Ac As]
-2.1 -6.5 72 -7 -7 по сезону 1030.3 1008.3
15 14.11 Ю 3 10 км 10/8 540 м
[Sc Ac As]
-1.9 -7.3 67 -7 -7 по сезону 1030.3 1008.3 -1.9
18 14.11 Ю 3 10 км 10/8 480 м
[Sc Ac As]
-1.8 -8.2 62 -6 -6 по сезону 1030.8 1008.8
21 14.11 Ю 4 10 км 10/10 270 м
[Sc]
-1.2 -7.3 63 -6 -6 по сезону 1031.8 1009.9
00 15.11 Ю 2 10 км 10/10 300 м
[Sc]
-1.3 -12.2 43 -4 -4 по сезону 1032.7 1010.8
03 15.11 Ю 1 10 км 10/10 600 м
[Sc]
-1.6 -12.2 44 -3 -3 по сезону 1034.3 1012.3 -1.9
06 15.11 Ю 2 10 км 9/9 1140 м
[Sc]
-2.0 -11.8 47 -5 -5 по сезону 1036.3 1014.2 -2.0
09 15.11 Ю 2 10 км 4/0
[Ac trans]
-0.1 -12.3 39 -3 -2 по сезону 1037.6 1015.6
12 15.11 Ю 3 10 км 3/0
[Ac trans]
+0.8 -14.2 32 -3 -2 по сезону 1039.0 1017.1
15 15.11 Ю 1 10 км ясно -2.7 -12.7 46 -4 -4 по сезону 1040.5 1018.2 +1.1
18 15.11 Ю 2 10 км ясно -3.3 -13.6 45 -7 -7 по сезону 1041.7 1019.4
21 15.11 штиль 0 10 км ясно -6.8 -13.4 59 -7 -7 по сезону 1043.9 1021.2
00 16.11 Ю 2 10 км ясно -6.0 -14.2 52 -10 -10 по сезону 1044.2 1021.6
03 16.11 Ю 3 10 км ясно -7.2 -13.9 59 -13 -13 прохладно 1044.9 1022.2 -9.4
06 16.11 ЮЗ 3 10 км 3/0
[Ci fib]
-6.8 -13.9 57 -12 -12 прохладно 1045.6 1022.9 -10.4
09 16.11 ЮЗ 3 10 км 6/0
[Ci fib]
-2.1 -12.2 46 -6 -6 по сезону 1045.9 1023.6
12 16.11 ЮЗ 3 10 км 4/0
[Ci fib]
-0.4 -13.5 36 -4 -4 по сезону 1045.3 1023.1
15 16.11 ЮЗ 3 10 км 4/0
[Ci fib]
-3.8 -12.6 50 -8 -8 по сезону 1045.0 1022.5 -0.1
18 16.11 ЮЗ 3 10 км ясно -4.4 -12.5 53 -9 -9 по сезону 1044.0 1021.5
21 16.11 ЮЗ 4 10 км ясно -4.5 -11.5 58 -10 -10 по сезону 1042.9 1020.5
00 17.11 ЮЗ 4 10 км ясно -5.0 -10.5 65 -11 -11 по сезону 1041.1 1018.6
03 17.11 ЮЗ 3 10 км 3/0
[Ci fib]
-5.6 -10.8 67 -11 -11 по сезону 1038.9 1016.3 -5.8
06 17.11 З 3 10 км 9/0
[Ac trans]
-4.8 -9.6 69 -10 -10 по сезону 1037.2 1014.7
09 17.11 ЮЗ 3 10 км 10/6 200 м
[Frnb Ac und]
-1.2 -5.5 73 -6 -6 по сезону 1033.8 1011.8
12 17.11 З 4 10 км 9/4 600 м
[Sc Ac trans]
+0.3 -4.4 71 -5 -5 по сезону 1031.1 1009.2
15 17.11 З 5 10 км 10/10 600 м
[Sc]
+0.8 -3.1 75 -5 -5 по сезону 1028.0 1006.2 +0.8
18 17.11 З 4 2000 м слабый ливневой снег 10/10 300 м
[Cb cap]
+0.2 -1.2 90 -5 -5 по сезону 1024.7 1002.9
21 17.11 З 3 4000 м в посл. час ливневой снег 10/10 100 м
[Cb cap]
0.0 -1.4 90 -5 -5 по сезону 1021.9 1000.2
00 18.11 ЮЗ 2 4000 м слабый снег {ливн. осадки} 10/10 100 м
[Frnb Ns]
-0.2 -1.6 90 -4 -4 по сезону 1019.6 997.9
03 18.11 З 3 4000 м дымка {снег} 10/10 100 м
[Frnb Ns]
0.0 -1.8 88 -5 -5 по сезону 1018.6 996.8 -0.3 2 1
06 18.11 ЮЗ 3 1000 м дымка {снег} 10/10 90 м
[St]
-0.1 -0.5 97 -5 -5 по сезону 1018.4 996.8
09 18.11 ЮЗ 2 1000 м в посл. час ливневой снег 10/10 90 м
[Cb calv]
+0.1 -0.3 97 -4 -4 по сезону 1019.6 998.0
12 18.11 ЮЗ 2 4000 м слабый ливневой снег 10/10 150 м
[Cb calv]
+0.1 -0.3 97 -4 -4 по сезону 1021.0 999.4
15 18.11 З 1 2000 м слабый ливневой снег 10/10 150 м
[Cb calv]
0.0 -0.4 97 -2 -2 тепло 1022.5 1000.9 +0.2 0.6
18 18.11 СЗ 1 2000 м слабый снег {ливн. осадки} 10/10 120 м
[Frnb Ns]
+0.1 -0.4 96 -2 -2 тепло 1023.9 1002.3
21 18.11 СЗ 1 4000 м дымка {снег} 10/10 150 м
[Sc]
0.0 -0.4 97 -2 -2 тепло 1025.6 1003.9

 

Местоположение метеостанции Владимир (Владимирская область, Россия): широта 56.12 долгота 40.35 высота над уровнем моря 172 м.

В архиве по умолчанию представлена погода в Владимире за последнюю неделю. Архивные данные за месяц целиком и за предыдущие месяцы, начиная с января 2011 года, Вы можете получить, выбрав интересующий диапазон дат из раскрывающегося списка и нажав кнопку "Ввод!".


*Определитесь, кто Вы:
робот инопланетянин человек

Внимание! Время в таблицах - всемирное. Для получения местного времени необходимо прибавить поправку, которая в Владимире равна 3 ч.

Смотрите также архив погоды в соседних городах и на ближайших метеорологических станциях:

Погода в Суздали (Владимирская область, Россия) (34 км)
Погода в Юрьев-Польском (Владимирская область, Россия) (58 км)
Погода в Петушках (Владимирская область, Россия) (59 км)
Погода в Гусь-Хрустальный (Владимирская область, Россия) (61 км)
Погода в Черустях (Московская область, Россия) (67 км)
Погода в Коврове (Владимирская область, Россия) (67 км)
Погода в Тейково (Ивановская область, Россия) (82 км)
Погода в Иванове (Ивановская область, Россия) (100 км)
Погода в Александрове (Владимирская область, Россия) (104 км)
Погода в Шуе (Ивановская область, Россия) (104 км)

Пояснения к столбцам:

Ветер - указаны скорость ветра в м/с - средняя за 10 мин, порывы в срок и между сроками (в фигурных скобках) и направление, откуда дует ветер: С - северный, СВ - северо-восточный, В - восточный, ЮВ - юго-восточный, Ю - южный, ЮЗ - юго-западный, З - западный, СЗ - северо-западный.
Видимость - горизонтальная дальность видимости в метрах или километрах. При видимости от 1 до 10 км при отсутствии осадков обычно наблюдается дымка, при ухудшении видимости до 1 км и менее - туман. В сухую погоду видимость может ухудшаться дымом, пылью или мглою.
Явления - указаны атмосферные явления, наблюдавшиеся в срок или в последний час перед сроком; фигурными скобками обозначены явления, наблюдавшиеся между сроками (за 1-3 часа до срока); квадратными скобками обозначены град или гололедные отложения с указанием их диаметра в мм.
Облачность - указаны через наклонную черту общая и нижняя облачность в баллах и высота нижней границы облаков в метрах; квадратными скобками обозначены формы облаков: Ci - перистые, Cs - перисто-слоистые, Cc - перисто-кучевые, Ac - высококучевые, As - высокослоистые, Sc - слоисто-кучевые, Ns - слоисто-дождевые, Cu - кучевые, Cb - кучево-дождевые. Подробнее классификацию облаков см. в Атласе облаков (PDF).
T - Температура воздуха - температура, измеренная на высоте 2 м над землей.
Td - Температура точки росы - температура, при понижении до которой содержащийся в воздухе водяной пар достигнет насыщения.
f - Относительная влажность воздуха - влажноcть воздуха, измеренная на высоте 2 м над землей.
Te - Эффективная температура - температура, которую ощущает одетый по сезону человек в тени. Характеристика душности погоды. При расчете учитывается влияние влажности воздуха и скорости ветра на теплоощущения человека.
Tes - Эффективная температура на солнце - температура, которую ощущает человек, с поправкой на солнечный нагрев. Характеристика знойности погоды. Зависит от высоты солнца над горизонтом, облачности и скорости ветра. Ночью, в пасмурную погоду, а также при ветре 12 м/с и более поправка равна нулю.
P - Атмосферное давление - приведенное к уровню моря атмосферное давление.
Po - Атмосферное давление - измеренное на уровне метеостанции атмосферное давление.
Tmin - Минимальная температура - минимум температуры воздуха на высоте 2 м над землей.
Tmax - Максимальная температура - максимум температуры воздуха на высоте 2 м над землей.
R - Количество осадков - Количество выпавших осадков за период времени, мм. При наведении курсора мыши на число - период времени, за который выпало указанное количество осадков.
R24 - Количество осадков - Количество выпавших осадков за 24 часа, мм.
S - Снежный покров - Высота снежного покрова, см. При наведении курсора мыши на число - состояние снежного покрова и степень покрытия местности в баллах.